Regional Weather Roundup
Issued by NWS

Home | Current Version | Previous Version | Graphics & Text | Print | Product List | Glossary On
Versions: 1 2 3 4 5 6 7 8 9 10 11 12 13 14 15 16 17 18 19 20 21 22 23 24 25 26 27 28 29 30 31 32 33 34 35 36 37 38 39 40 41 42 43 44 45 46 47 48 49 50
456
ASUS43 KMKX 281811
RWRWI

WISCONSIN REGIONAL WEATHER ROUNDUP
NATIONAL WEATHER SERVICE MILWAUKEE/SULLIVAN WI
100 PM CDT FRI APR 28 2017

NOTE: "FAIR" INDICATES FEW OR NO CLOUDS BELOW 12,000 FEET WITH NO
SIGNIFICANT WEATHER AND/OR OBSTRUCTIONS TO VISIBILITY.

WIZ001-002-006>008-014>016-023>028-281900-
NORTHWEST WISCONSIN

CITY           SKY/WX    TMP DP  RH WIND       PRES   REMARKS
SUPERIOR ARPT  CLOUDY    42  27  54 W12G20    29.92S
6HR MIN TEMP:  32; 6HR MAX TEMP:  43;

ASHLAND        CLOUDY    40  29  64 W17G24    29.91R WCI  31
6HR MIN TEMP:  30; 6HR MAX TEMP:  40;

HAYWARD        CLOUDY    40  24  53 W6        29.92R
6HR MIN TEMP:  30; 6HR MAX TEMP:  40;

SIREN          MOSUNNY   42  27  54 N8        29.93F
6HR MIN TEMP:  32; 6HR MAX TEMP:  42;

CUMBERLAND     CLOUDY    39  27  60 NW8       29.93S WCI  34
RICE LAKE      CLOUDY    42  27  56 W3        29.94F
6HR MIN TEMP:  32; 6HR MAX TEMP:  42;

CHETEK         CLOUDY    43  30  58 N6        29.92F
6HR MIN TEMP:  32; 6HR MAX TEMP:  43;

LADYSMITH      CLOUDY    42  28  57 W8        29.93S
6HR MIN TEMP:  32; 6HR MAX TEMP:  43;

EAU CLAIRE     CLOUDY    45  25  45 CALM      29.92F
6HR MIN TEMP:  34; 6HR MAX TEMP:  45;

MENOMONIE      CLOUDY    45  26  47 N3        29.93S
6HR MIN TEMP:  35; 6HR MAX TEMP:  46;

NEW RICHMOND   CLOUDY    44  26  49 NW3G16    29.94F
6HR MIN TEMP:  34; 6HR MAX TEMP:  45;

OSCEOLA        CLOUDY    44  29  57 NW8       29.98S
6HR MIN TEMP:  33; 6HR MAX TEMP:  45;

$$

WIZ003>005-009-010-017-018-281900-
NORTH CENTRAL WISCONSIN

CITY           SKY/WX    TMP DP  RH WIND       PRES   REMARKS
MANITOWISH WTR CLOUDY    33  24  69 W15G21    29.88R WCI  23
ARBOR VITAE    CLOUDY    37  27  67 W8        29.88S WCI  30
6HR MIN TEMP:  32; 6HR MAX TEMP:  37;

WOODRUFF       CLOUDY    37  27  67 W8        29.88S WCI  30
6HR MIN TEMP:  32; 6HR MAX TEMP:  37;

RHINELANDER    CLOUDY    38  25  59 W9        29.90R WCI  31
6HR MIN TEMP:  30; 6HR MAX TEMP:  38; 6HR PCP: TRACE;

EAGLE RIVER    CLOUDY    35  22  61 W12       29.88S WCI  26
6HR MIN TEMP:  28; 6HR MAX TEMP:  35;

LAND O LAKES   CLOUDY    37  23  59 W8G16     29.88R WCI  30
6HR MIN TEMP:  29; 6HR MAX TEMP:  37; 6HR PCP:  0.16;

PHILLIPS       CLOUDY    37  26  66 W9        29.90S WCI  30
6HR MIN TEMP:  29; 6HR MAX TEMP:  37;

TOMAHAWK       PTSUNNY   37  25  63 W9        29.91S WCI  30
6HR MIN TEMP:  29; 6HR MAX TEMP:  37;

MEDFORD        CLOUDY    39  29  66 W7        29.89F WCI  34
6HR MIN TEMP:  30; 6HR MAX TEMP:  40;

MERRILL        CLOUDY    40  29  64 NW6       29.91F
6HR MIN TEMP:  31; 6HR MAX TEMP:  40;

$$

WIZ029-030-035-036-043>047-281900-
CENTRAL WISCONSIN

CITY           SKY/WX    TMP DP  RH WIND       PRES   REMARKS
WAUSAU         MOSUNNY   42  28  57 W13       29.89F
6HR MIN TEMP:  32; 6HR MAX TEMP:  42;

MOSINEE        MOSUNNY   43  30  61 NW9       29.90F
MARSHFIELD     CLOUDY    43  28  55 NW12      29.89F
6HR MIN TEMP:  33; 6HR MAX TEMP:  44;

STEVENS POINT  CLOUDY    42  27  54 W6        29.91S
6HR MIN TEMP:  32; 6HR MAX TEMP:  43;

WAUPACA        CLOUDY    50  30  46 NW8       29.92R
6HR MIN TEMP:  37; 6HR MAX TEMP:  50; 6HR PCP:  0.01;

WAUTOMA        MOSUNNY   47  31  53 CALM      29.92S
6HR MIN TEMP:  36; 6HR MAX TEMP:  48;

WISC RAPIDS    CLOUDY    46  29  51 W5        29.93S
6HR MIN TEMP:  35; 6HR MAX TEMP:  47;

CAMP DOUGLAS   PTSUNNY   46  32  57 NW5       29.91S
$$

WIZ011>013-019>022-031-037>040-048>050-281900-
NORTHEAST WISCONSIN

CITY           SKY/WX    TMP DP  RH WIND       PRES   REMARKS
ANTIGO         CLOUDY    39  29  67 W9G17     29.90F WCI  33
6HR MIN TEMP:  29; 6HR MAX TEMP:  40;

SHAWANO        MOSUNNY   49  30  48 W6G17     29.90F
6HR MIN TEMP:  36; 6HR MAX TEMP:  49;

OCONTO         NOT AVBL
STURGEON BAY   CLOUDY    43  29  57 W10G17    29.92S
6HR MIN TEMP:  35; 6HR MAX TEMP:  44;

GREEN BAY      CLOUDY    47  34  60 SW7       29.91F
6HR MIN TEMP:  36; 6HR MAX TEMP:  48;

MANITOWOC      PTSUNNY   47  33  58 SW10      29.94S
6HR MIN TEMP:  37; 6HR MAX TEMP:  47;

APPLETON       PTSUNNY   45  30  57 SW12      29.90F
CLINTONVILLE   MOSUNNY   46  28  49 W10G17    29.90F
OSHKOSH        CLOUDY    47  33  58 W8        29.93R
6HR MIN TEMP:  36; 6HR MAX TEMP:  48;

$$

WIZ032>034-041-042-053>061-281900-
SOUTHWEST WISCONSIN

CITY           SKY/WX    TMP DP  RH WIND       PRES   REMARKS
LA CROSSE      CLOUDY    49  31  49 CALM      29.93R
6HR MIN TEMP:  36; 6HR MAX TEMP:  49;

SPARTA         CLOUDY    46  32  58 CALM      29.92S
6HR MIN TEMP:  31; 6HR MAX TEMP:  46;

VIROQUA        CLOUDY    45  31  58 CALM      29.91S
6HR MIN TEMP:  31; 6HR MAX TEMP:  45;

BOSCOBEL       PTSUNNY   50  31  48 CALM      29.94R
6HR MIN TEMP:  34; 6HR MAX TEMP:  50;

PRAIRIE DU CHI CLOUDY    47  29  50 SE3       29.95R
6HR MIN TEMP:  32; 6HR MAX TEMP:  47;

PLATTEVILLE    CLOUDY    44  37  74 E7        29.94R
6HR MIN TEMP:  32; 6HR MAX TEMP:  45;

$$

WIZ056-057-062-063-064-067-068-281900-
SOUTH CENTRAL WISCONSIN

CITY           SKY/WX    TMP DP  RH WIND       PRES   REMARKS
REEDSBURG      NOT AVBL
BARABOO/DELLS  CLOUDY    48  31  52 S3        29.92S
6HR MIN TEMP:  34; 6HR MAX TEMP:  48;

LONE ROCK      CLOUDY    48  31  51 CALM      29.94R
6HR MIN TEMP:  35; 6HR MAX TEMP:  49;

MINERAL POINT  LGT RAIN  46  36  66 CALM      29.93R
MADISON        CLOUDY    46  30  53 VRB5      29.93R
6HR MIN TEMP:  35; 6HR MAX TEMP:  46;

MIDDLETON      CLOUDY    48  33  55 E7        29.94S
6HR MIN TEMP:  34; 6HR MAX TEMP:  48;

WATERTOWN      CLOUDY    47  36  66 SW7       29.94S
6HR MIN TEMP:  35; 6HR MAX TEMP:  47;

MONROE         CLOUDY    43  36  75 E6        29.93F
JANESVILLE     PTSUNNY   48  37  66 CALM      29.94S
$$

WIZ051-052-058>065-066-070>072-281900-
SOUTHEAST WISCONSIN

CITY           SKY/WX    TMP DP  RH WIND       PRES   REMARKS
MILWAUKEE      CLOUDY    49  38  65 SE10      29.95R
6HR MIN TEMP:  39; 6HR MAX TEMP:  54;

WAUKESHA       PTSUNNY   48  34  57 S3        29.95R
MILWAUKEE/TIMM PTSUNNY   52  32  46 SW6       29.95R
RACINE         CLOUDY    48  35  60 S9        29.97R
6HR MIN TEMP:  39; 6HR MAX TEMP:  52;

KENOSHA        CLOUDY    49  38  65 SE9       29.95S
6HR MIN TEMP:  39; 6HR MAX TEMP:  53;

FOND DU LAC    MOSUNNY   47  33  58 SW8       29.94R
6HR MIN TEMP:  37; 6HR MAX TEMP:  47;

SHEBOYGAN      SUNNY     50  42  74 VRB7      29.93S
6HR MIN TEMP:  37; 6HR MAX TEMP:  50;

WEST BEND      CLOUDY    50  36  57 SW6       29.94R
JUNEAU         CLOUDY    46  35  67 CALM      29.95R
6HR MIN TEMP:  35; 6HR MAX TEMP:  46;

$$

LSZ147-162-281900-
LAKE SUPERIOR

STATION/POSITION TIME  TEMP    WIND        PRES    WAVE
                       AIR SEA DIR/SP/G            HT/PER
                 (UTC) (F)     (DEG/KT/KT) (MB)    (FT/S)
DEVILS ISLAND    1800   36     240/ 21/ 24 1012.6R
PORT WING        1740   38     240/ 12/ 19 1013.2R
SAXON HARBOR     1730   37     210/  8/ 13 1012.5R
$$

LMZ867-665-643>646-281900-
LAKE MICHIGAN

STATION/POSITION TIME  TEMP    WIND        PRES    WAVE
                       AIR SEA DIR/SP/G            HT/PER
                 (UTC) (F)     (DEG/KT/KT) (MB)    (FT/S)
CHAMBERS ISLAND  1740   41     220/  9/ 14 1012.9R
N MID LAKE BUOY  1750   37 37  240/ 14/ 16 1014.6R   3/ 5
NORTHPORT PIER   1740   40     230/  7/ 16 1013.5R
KEWAUNEE LAKESHO 1748   44     220/  8/ 14 1013.1F
SHEBOYGAN LAKESH 1800   40     160/ 16/ 17 1014.3R
PORT WASHINGTON  1740   42     150/  9/ 10 1015.2R
MILWAUKEE LAK



USA.gov is the U.S. government's official web portal to all federal, state and local government web resources and services.